Back to catalog

THORAD AGENA D DEB

AliveSSO
NORAD 4743·DEBRIS·🇺🇸 United States

Launched Apr 8, 1970 from Vandenberg Space Force Base

Loading…

Next Passes (next 24 hours)

TLE

FreshSource: Space-Track

Epoch: Sep 13, 2026, 20:53 UTC

1 04743U 70025CS  26256.87022156  .00000169  00000-0  29411-3 0  9990
2 04743  99.8977 336.9069 0036486  91.5023  33.3328 13.58451450785099

Track THORAD AGENA D DEB in real time with AllMySat

Download on the App Store